| time (UTC) | temp F | wind direction | speed MPH | gust MPH | rain 1hr in | rain 24hr in | rain mn in | humidity % | barometer mb |
| 20260904011003 | 86 | 114 | 6.0 | 14.0 | 0.00 | 0.00 | 0.00 | 67 | 1012.1 |
| 20260904010503 | 86 | 110 | 6.0 | 16.0 | 0.00 | 0.00 | 0.00 | 66 | 1012.0 |
| 20260904010003 | 87 | 117 | 7.0 | 16.0 | 0.00 | 0.00 | 0.00 | 66 | 1012.0 |
| 20260904005503 | 87 | 121 | 8.0 | 16.0 | 0.00 | 0.00 | 0.00 | 65 | 1012.0 |
| 20260904005003 | 87 | 116 | 8.0 | 16.0 | 0.00 | 0.00 | 0.00 | 65 | 1012.1 |
| 20260904004503 | 88 | 115 | 7.0 | 16.0 | 0.00 | 0.00 | 0.00 | 64 | 1012.0 |
| 20260904004025 | 88 | 113 | 6.0 | 13.0 | 0.00 | 0.00 | 0.00 | 64 | 1011.9 |
| 20260904003504 | 88 | 110 | 7.0 | 13.0 | 0.00 | 0.00 | 0.00 | 63 | 1011.9 |
| 20260904003004 | 89 | 111 | 7.0 | 16.0 | 0.00 | 0.00 | 0.00 | 63 | 1011.9 |
| 20260904002504 | 89 | 110 | 8.0 | 17.0 | 0.00 | 0.00 | 0.00 | 62 | 1011.9 |
| 20260904002004 | 89 | 109 | 10.0 | 19.0 | 0.00 | 0.00 | 0.00 | 61 | 1011.9 |
| 20260904001504 | 89 | 111 | 8.0 | 19.0 | 0.00 | 0.00 | 0.00 | 61 | 1011.8 |
| 20260904001004 | 89 | 116 | 6.0 | 16.0 | 0.00 | 0.00 | 0.00 | 60 | 1011.8 |
| 20260904000504 | 90 | 114 | 6.0 | 13.0 | 0.00 | 0.00 | 0.00 | 60 | 1011.7 |
| 20260904000004 | 90 | 110 | 7.0 | 17.0 | 0.00 | 0.00 | 0.00 | 60 | 1011.8 |
| 20260903235504 | 90 | 116 | 6.0 | 17.0 | 0.00 | 0.00 | 0.00 | 61 | 1011.9 |
| 20260903235025 | 90 | 123 | 7.0 | 17.0 | 0.00 | 0.00 | 0.00 | 61 | 1011.8 |
| 20260903234504 | 90 | 126 | 8.0 | 17.0 | 0.00 | 0.00 | 0.00 | 59 | 1011.8 |
| 20260903234004 | 91 | 121 | 10.0 | 18.0 | 0.00 | 0.00 | 0.00 | 59 | 1011.8 |
| 20260903233504 | 91 | 119 | 8.0 | 18.0 | 0.00 | 0.00 | 0.00 | 58 | 1011.6 |
| 20260903233004 | 92 | 122 | 8.0 | 17.0 | 0.00 | 0.00 | 0.00 | 58 | 1011.5 |
| 20260903232504 | 92 | 120 | 11.0 | 20.0 | 0.00 | 0.00 | 0.00 | 58 | 1011.4 |
| 20260903232004 | 93 | 117 | 10.0 | 20.0 | 0.00 | 0.00 | 0.00 | 57 | 1011.4 |
| 20260903231504 | 93 | 108 | 10.0 | 24.0 | 0.00 | 0.00 | 0.00 | 57 | 1011.4 |
| 20260903231004 | 94 | 111 | 12.0 | 24.0 | 0.00 | 0.00 | 0.00 | 57 | 1011.3 |
| 20260903230525 | 94 | 117 | 13.0 | 25.0 | 0.00 | 0.00 | 0.00 | 58 | 1011.3 |
| 20260903230004 | 94 | 119 | 13.0 | 26.0 | 0.00 | 0.00 | 0.00 | 57 | 1011.4 |
| 20260903225504 | 94 | 117 | 12.0 | 25.0 | 0.00 | 0.00 | 0.00 | 56 | 1011.0 |
| 20260903225004 | 96 | 109 | 13.0 | 26.0 | 0.00 | 0.00 | 0.00 | 53 | 1011.3 |
| 20260903224525 | 96 | 102 | 11.0 | 26.0 | 0.00 | 0.00 | 0.00 | 50 | 1010.9 |
| 20260903224004 | 97 | 102 | 8.0 | 26.0 | 0.00 | 0.00 | 0.00 | 47 | 1010.7 |
| 20260903223504 | 97 | 104 | 8.0 | 23.0 | 0.00 | 0.00 | 0.00 | 47 | 1010.8 |
| 20260903223004 | 96 | 113 | 10.0 | 24.0 | 0.00 | 0.00 | 0.00 | 47 | 1010.7 |
| 20260903222525 | 96 | 114 | 12.0 | 24.0 | 0.00 | 0.00 | 0.00 | 47 | 1010.7 |
| 20260903222004 | 96 | 110 | 11.0 | 28.0 | 0.00 | 0.00 | 0.00 | 47 | 1010.7 |
| 20260903221524 | 97 | 109 | 12.0 | 29.0 | 0.00 | 0.00 | 0.00 | 46 | 1010.7 |
| 20260903221004 | 97 | 108 | 14.0 | 29.0 | 0.00 | 0.00 | 0.00 | 46 | 1010.7 |
| 20260903220504 | 98 | 108 | 13.0 | 29.0 | 0.00 | 0.00 | 0.00 | 46 | 1010.7 |
| 20260903220004 | 99 | 109 | 10.0 | 29.0 | 0.00 | 0.00 | 0.00 | 44 | 1010.7 |
| 20260903215504 | 100 | 117 | 7.0 | 22.0 | 0.00 | 0.00 | 0.00 | 42 | 1010.7 |
| 20260903215004 | 101 | 121 | 8.0 | 19.0 | 0.00 | 0.00 | 0.00 | 42 | 1010.6 |
| 20260903214503 | 101 | 112 | 7.0 | 19.0 | 0.00 | 0.00 | 0.00 | 41 | 1010.5 |
| 20260903214004 | 102 | 109 | 6.0 | 17.0 | 0.00 | 0.00 | 0.00 | 41 | 1010.5 |
| 20260903213504 | 102 | 102 | 5.0 | 17.0 | 0.00 | 0.00 | 0.00 | 41 | 1010.5 |
| 20260903213025 | 102 | 104 | 6.0 | 16.0 | 0.00 | 0.00 | 0.00 | 41 | 1010.6 |
| 20260903212504 | 102 | 119 | 6.0 | 16.0 | 0.00 | 0.00 | 0.00 | 43 | 1010.9 |
| 20260903212025 | 102 | 130 | 6.0 | 16.0 | 0.00 | 0.00 | 0.00 | 42 | 1010.7 |
| 20260903211525 | 102 | 139 | 7.0 | 13.0 | 0.00 | 0.00 | 0.00 | 41 | 1010.7 |
| 20260903211004 | 102 | 130 | 6.0 | 16.0 | 0.00 | 0.00 | 0.00 | 42 | 1010.8 |
| 20260903210504 | 102 | 121 | 4.0 | 16.0 | 0.00 | 0.00 | 0.00 | 42 | 1010.7 |
| 20260903210004 | 103 | 128 | 4.0 | 13.0 | 0.00 | 0.00 | 0.00 | 40 | 1010.8 |
| 20260903205504 | 103 | 138 | 4.0 | 10.0 | 0.00 | 0.00 | 0.00 | 39 | 1010.8 |
| 20260903205004 | 103 | 133 | 5.0 | 11.0 | 0.00 | 0.00 | 0.00 | 39 | 1011.0 |
| 20260903204503 | 104 | 144 | 6.0 | 11.0 | 0.00 | 0.00 | 0.00 | 38 | 1011.1 |
| 20260903204004 | 104 | 136 | 6.0 | 13.0 | 0.00 | 0.00 | 0.00 | 38 | 1011.2 |
| 20260903203504 | 105 | 127 | 7.0 | 17.0 | 0.00 | 0.00 | 0.00 | 38 | 1011.2 |
| 20260903203004 | 106 | 145 | 7.0 | 17.0 | 0.00 | 0.00 | 0.00 | 38 | 1011.3 |
| 20260903202504 | 105 | 154 | 5.0 | 13.0 | 0.00 | 0.00 | 0.00 | 37 | 1011.5 |
| 20260903202004 | 105 | 148 | 5.0 | 13.0 | 0.00 | 0.00 | 0.00 | 38 | 1011.5 |
| 20260903201525 | 105 | 142 | 6.0 | 17.0 | 0.00 | 0.00 | 0.00 | 37 | 1011.5 |
| 20260903201003 | 105 | 157 | 6.0 | 17.0 | 0.00 | 0.00 | 0.00 | 38 | 1011.6 |
| 20260903200503 | 105 | 171 | 5.0 | 14.0 | 0.00 | 0.00 | 0.00 | 38 | 1011.6 |
| 20260903200004 | 104 | 158 | 5.0 | 13.0 | 0.00 | 0.00 | 0.00 | 39 | 1011.7 |
| 20260903195504 | 104 | 181 | 6.0 | 14.0 | 0.00 | 0.00 | 0.00 | 40 | 1011.7 |
| 20260903195004 | 104 | 187 | 7.0 | 14.0 | 0.00 | 0.00 | 0.00 | 40 | 1011.7 |
| 20260903194524 | 104 | 179 | 7.0 | 14.0 | 0.00 | 0.00 | 0.00 | 40 | 1011.7 |
| 20260903194025 | 104 | 167 | 6.0 | 14.0 | 0.00 | 0.00 | 0.00 | 40 | 1011.7 |
| 20260903193504 | 104 | 139 | 7.0 | 14.0 | 0.00 | 0.00 | 0.00 | 42 | 1011.9 |
| 20260903193025 | 103 | 137 | 6.0 | 14.0 | 0.00 | 0.00 | 0.00 | 41 | 1012.0 |
| 20260903192504 | 103 | 190 | 5.0 | 14.0 | 0.00 | 0.00 | 0.00 | 43 | 1012.1 |
| 20260903192004 | 103 | 200 | 6.0 | 14.0 | 0.00 | 0.00 | 0.00 | 41 | 1012.2 |
| 20260903191525 | 103 | 181 | 5.0 | 12.0 | 0.00 | 0.00 | 0.00 | 41 | 1012.2 |
| 20260903191025 | 103 | 148 | 6.0 | 13.0 | 0.00 | 0.00 | 0.00 | 43 | 1012.4 |
| 20260903190504 | 103 | 134 | 8.0 | 16.0 | 0.00 | 0.00 | 0.00 | 44 | 1012.7 |
| 20260903190024 | 103 | 128 | 8.0 | 20.0 | 0.00 | 0.00 | 0.00 | 43 | 1012.5 |
| 20260903185504 | 102 | 162 | 6.0 | 20.0 | 0.00 | 0.00 | 0.00 | 44 | 1012.5 |
| 20260903185025 | 102 | 202 | 6.0 | 14.0 | 0.00 | 0.00 | 0.00 | 45 | 1012.6 |
| 20260903184503 | 102 | 187 | 8.0 | 14.0 | 0.00 | 0.00 | 0.00 | 43 | 1012.7 |
| 20260903184003 | 102 | 152 | 8.0 | 14.0 | 0.00 | 0.00 | 0.00 | 46 | 1012.8 |
| 20260903183504 | 102 | 133 | 6.0 | 14.0 | 0.00 | 0.00 | 0.00 | 45 | 1012.9 |
| 20260903183003 | 101 | 147 | 6.0 | 14.0 | 0.00 | 0.00 | 0.00 | 46 | 1013.0 |
| 20260903182525 | 101 | 157 | 7.0 | 16.0 | 0.00 | 0.00 | 0.00 | 45 | 1013.0 |
| 20260903182003 | 101 | 154 | 7.0 | 16.0 | 0.00 | 0.00 | 0.00 | 45 | 1013.2 |
| 20260903181503 | 100 | 147 | 6.0 | 14.0 | 0.00 | 0.00 | 0.00 | 47 | 1013.3 |
| 20260903181004 | 100 | 148 | 7.0 | 14.0 | 0.00 | 0.00 | 0.00 | 47 | 1013.4 |
| 20260903180504 | 100 | 160 | 7.0 | 14.0 | 0.00 | 0.00 | 0.00 | 48 | 1013.4 |
| 20260903180003 | 99 | 180 | 6.0 | 14.0 | 0.00 | 0.00 | 0.00 | 48 | 1013.4 |
| 20260903175504 | 98 | 187 | 7.0 | 18.0 | 0.00 | 0.00 | 0.00 | 48 | 1013.5 |
| 20260903175003 | 98 | 190 | 7.0 | 18.0 | 0.00 | 0.00 | 0.00 | 49 | 1013.5 |
| 20260903174504 | 98 | 192 | 7.0 | 16.0 | 0.00 | 0.00 | 0.00 | 50 | 1013.5 |
| 20260903174003 | 97 | 191 | 7.0 | 16.0 | 0.00 | 0.00 | 0.00 | 51 | 1013.4 |
| 20260903173503 | 96 | 197 | 7.0 | 17.0 | 0.00 | 0.00 | 0.00 | 51 | 1013.5 |
| 20260903173003 | 96 | 185 | 7.0 | 17.0 | 0.00 | 0.00 | 0.00 | 51 | 1013.6 |
| 20260903172503 | 96 | 167 | 7.0 | 14.0 | 0.00 | 0.00 | 0.00 | 54 | 1013.7 |
| 20260903172004 | 95 | 161 | 8.0 | 18.0 | 0.00 | 0.00 | 0.00 | 54 | 1013.8 |
| 20260903171503 | 95 | 165 | 11.0 | 19.0 | 0.00 | 0.00 | 0.00 | 56 | 1013.9 |
| 20260903171004 | 94 | 177 | 11.0 | 19.0 | 0.00 | 0.00 | 0.00 | 55 | 1014.0 |
| 20260903170504 | 94 | 170 | 8.0 | 16.0 | 0.00 | 0.00 | 0.00 | 54 | 1014.0 |
| 20260903170003 | 94 | 151 | 8.0 | 16.0 | 0.00 | 0.00 | 0.00 | 56 | 1014.1 |
| 20260903165504 | 94 | 147 | 8.0 | 17.0 | 0.00 | 0.00 | 0.00 | 57 | 1014.1 |
| 20260903165025 | 93 | 155 | 8.0 | 17.0 | 0.00 | 0.00 | 0.00 | 59 | 1014.1 |
| 20260903164503 | 93 | 157 | 7.0 | 17.0 | 0.00 | 0.00 | 0.00 | 60 | 1014.2 |
| 20260903164003 | 92 | 160 | 7.0 | 17.0 | 0.00 | 0.00 | 0.00 | 61 | 1014.2 |
| 20260903163503 | 92 | 180 | 7.0 | 18.0 | 0.00 | 0.00 | 0.00 | 60 | 1014.2 |
| 20260903163003 | 92 | 194 | 7.0 | 18.0 | 0.00 | 0.00 | 0.00 | 60 | 1014.2 |
| 20260903162503 | 92 | 204 | 7.0 | 14.0 | 0.00 | 0.00 | 0.00 | 61 | 1014.2 |
| 20260903162003 | 91 | 195 | 8.0 | 19.0 | 0.00 | 0.00 | 0.00 | 61 | 1014.3 |
| 20260903161503 | 91 | 182 | 10.0 | 22.0 | 0.00 | 0.00 | 0.00 | 61 | 1014.2 |
| 20260903161003 | 91 | 175 | 11.0 | 22.0 | 0.00 | 0.00 | 0.00 | 62 | 1014.3 |
| 20260903160503 | 90 | 174 | 10.0 | 18.0 | 0.00 | 0.00 | 0.00 | 63 | 1014.3 |
| 20260903160003 | 90 | 182 | 7.0 | 18.0 | 0.00 | 0.00 | 0.00 | 65 | 1014.3 |
| 20260903155503 | 90 | 193 | 7.0 | 14.0 | 0.00 | 0.00 | 0.00 | 65 | 1014.3 |
| 20260903155003 | 89 | 185 | 8.0 | 18.0 | 0.00 | 0.00 | 0.00 | 66 | 1014.3 |
| 20260903154503 | 89 | 171 | 8.0 | 18.0 | 0.00 | 0.00 | 0.00 | 68 | 1014.2 |
| 20260903154024 | 89 | 173 | 7.0 | 14.0 | 0.00 | 0.00 | 0.00 | 68 | 1014.2 |
| 20260903153524 | 88 | 179 | 6.0 | 13.0 | 0.00 | 0.00 | 0.00 | 68 | 1014.3 |
| 20260903153003 | 88 | 180 | 7.0 | 16.0 | 0.00 | 0.00 | 0.00 | 70 | 1014.3 |
| 20260903152524 | 88 | 181 | 8.0 | 19.0 | 0.00 | 0.00 | 0.00 | 69 | 1014.3 |
| 20260903152003 | 87 | 190 | 10.0 | 19.0 | 0.00 | 0.00 | 0.00 | 70 | 1014.2 |
| 20260903151503 | 87 | 196 | 10.0 | 19.0 | 0.00 | 0.00 | 0.00 | 70 | 1014.2 |
| 20260903151003 | 87 | 188 | 10.0 | 19.0 | 0.00 | 0.00 | 0.00 | 71 | 1014.2 |
| 20260903150503 | 87 | 190 | 10.0 | 25.0 | 0.00 | 0.00 | 0.00 | 71 | 1014.2 |
| 20260903150003 | 86 | 191 | 8.0 | 25.0 | 0.00 | 0.00 | 0.00 | 72 | 1014.2 |
| 20260903145503 | 86 | 183 | 8.0 | 18.0 | 0.00 | 0.00 | 0.00 | 74 | 1014.1 |
| 20260903145003 | 86 | 189 | 7.0 | 18.0 | 0.00 | 0.00 | 0.00 | 75 | 1014.1 |
| 20260903144503 | 85 | 198 | 8.0 | 19.0 | 0.00 | 0.00 | 0.00 | 75 | 1014.1 |
| 20260903144024 | 85 | 190 | 10.0 | 20.0 | 0.00 | 0.00 | 0.00 | 75 | 1014.1 |
| 20260903143503 | 85 | 178 | 11.0 | 20.0 | 0.00 | 0.00 | 0.00 | 76 | 1014.2 |
| 20260903143004 | 84 | 175 | 10.0 | 20.0 | 0.00 | 0.00 | 0.00 | 76 | 1014.2 |
| 20260903142503 | 84 | 185 | 10.0 | 20.0 | 0.00 | 0.00 | 0.00 | 77 | 1014.3 |
| 20260903142003 | 84 | 195 | 8.0 | 18.0 | 0.00 | 0.00 | 0.00 | 77 | 1014.3 |
| 20260903141524 | 84 | 194 | 10.0 | 19.0 | 0.00 | 0.00 | 0.00 | 77 | 1014.4 |
| 20260903141003 | 84 | 185 | 10.0 | 23.0 | 0.00 | 0.00 | 0.00 | 78 | 1014.3 |
| 20260903140503 | 84 | 180 | 8.0 | 23.0 | 0.00 | 0.00 | 0.00 | 79 | 1014.3 |
| 20260903140003 | 84 | 185 | 8.0 | 16.0 | 0.00 | 0.00 | 0.00 | 80 | 1014.3 |
| 20260903135503 | 83 | 184 | 10.0 | 18.0 | 0.00 | 0.00 | 0.00 | 80 | 1014.3 |
| 20260903135003 | 83 | 180 | 10.0 | 18.0 | 0.00 | 0.00 | 0.00 | 81 | 1014.3 |
| 20260903134503 | 83 | 182 | 10.0 | 18.0 | 0.00 | 0.00 | 0.00 | 81 | 1014.3 |
| 20260903134003 | 83 | 181 | 10.0 | 19.0 | 0.00 | 0.00 | 0.00 | 82 | 1014.3 |
| 20260903133503 | 82 | 178 | 8.0 | 19.0 | 0.00 | 0.00 | 0.00 | 82 | 1014.4 |
| 20260903133024 | 82 | 185 | 8.0 | 16.0 | 0.00 | 0.00 | 0.00 | 83 | 1014.4 |
| 20260903132503 | 82 | 185 | 7.0 | 16.0 | 0.00 | 0.00 | 0.00 | 83 | 1014.4 |
| 20260903132003 | 82 | 177 | 7.0 | 16.0 | 0.00 | 0.00 | 0.00 | 83 | 1014.4 |
| 20260903131503 | 82 | 175 | 8.0 | 16.0 | 0.00 | 0.00 | 0.00 | 84 | 1014.4 |
| 20260903131003 | 82 | 175 | 8.0 | 16.0 | 0.00 | 0.00 | 0.00 | 84 | 1014.4 |
| 20260903130524 | 82 | 173 | 8.0 | 17.0 | 0.00 | 0.00 | 0.00 | 84 | 1014.3 |
| 20260903130003 | 81 | 171 | 8.0 | 18.0 | 0.00 | 0.00 | 0.00 | 84 | 1014.4 |
| 20260903125503 | 81 | 176 | 8.0 | 18.0 | 0.00 | 0.00 | 0.00 | 84 | 1014.3 |
| 20260903125003 | 81 | 179 | 8.0 | 14.0 | 0.00 | 0.00 | 0.00 | 84 | 1014.2 |
| 20260903124503 | 81 | 178 | 7.0 | 14.0 | 0.00 | 0.00 | 0.00 | 84 | 1014.2 |
| 20260903124003 | 81 | 180 | 7.0 | 14.0 | 0.00 | 0.00 | 0.00 | 85 | 1014.2 |
| 20260903123504 | 81 | 179 | 7.0 | 14.0 | 0.00 | 0.00 | 0.00 | 85 | 1014.1 |
| 20260903123004 | 81 | 178 | 6.0 | 14.0 | 0.00 | 0.00 | 0.00 | 85 | 1014.1 |
| 20260903122504 | 81 | 182 | 7.0 | 13.0 | 0.00 | 0.00 | 0.00 | 85 | 1014.1 |
| 20260903122004 | 81 | 180 | 7.0 | 13.0 | 0.00 | 0.00 | 0.00 | 85 | 1014.0 |
| 20260903121504 | 81 | 176 | 6.0 | 13.0 | 0.00 | 0.00 | 0.00 | 85 | 1013.9 |
| 20260903121004 | 81 | 175 | 6.0 | 12.0 | 0.00 | 0.00 | 0.00 | 85 | 1013.9 |
| 20260903120504 | 81 | 177 | 7.0 | 12.0 | 0.00 | 0.00 | 0.00 | 86 | 1013.9 |
| 20260903120004 | 81 | 178 | 7.0 | 16.0 | 0.00 | 0.00 | 0.00 | 86 | 1013.8 |
| 20260903115504 | 81 | 180 | 7.0 | 16.0 | 0.00 | 0.00 | 0.00 | 86 | 1013.7 |
| 20260903115004 | 81 | 178 | 7.0 | 13.0 | 0.00 | 0.00 | 0.00 | 86 | 1013.7 |
| 20260903114504 | 81 | 174 | 6.0 | 11.0 | 0.00 | 0.00 | 0.00 | 86 | 1013.7 |
| 20260903114004 | 81 | 178 | 5.0 | 8.0 | 0.00 | 0.00 | 0.00 | 86 | 1013.7 |
| 20260903113504 | 81 | 181 | 5.0 | 10.0 | 0.00 | 0.00 | 0.00 | 87 | 1013.7 |
| 20260903113004 | 80 | 177 | 6.0 | 12.0 | 0.00 | 0.00 | 0.00 | 87 | 1013.6 |
| 20260903112504 | 80 | 173 | 7.0 | 12.0 | 0.00 | 0.00 | 0.00 | 87 | 1013.7 |
| 20260903112025 | 80 | 172 | 6.0 | 12.0 | 0.00 | 0.00 | 0.00 | 87 | 1013.7 |
| 20260903111504 | 80 | 172 | 6.0 | 12.0 | 0.00 | 0.00 | 0.00 | 87 | 1013.7 |
| 20260903111004 | 80 | 170 | 7.0 | 12.0 | 0.00 | 0.00 | 0.00 | 87 | 1013.7 |
| 20260903110504 | 80 | 171 | 7.0 | 12.0 | 0.00 | 0.00 | 0.00 | 88 | 1013.6 |
| 20260903110004 | 80 | 172 | 6.0 | 12.0 | 0.00 | 0.00 | 0.00 | 88 | 1013.6 |
| 20260903105504 | 80 | 171 | 6.0 | 12.0 | 0.00 | 0.00 | 0.00 | 88 | 1013.7 |
| 20260903105004 | 80 | 168 | 6.0 | 11.0 | 0.00 | 0.00 | 0.00 | 88 | 1013.7 |
| 20260903104504 | 80 | 169 | 6.0 | 11.0 | 0.00 | 0.00 | 0.00 | 88 | 1013.6 |
| 20260903104005 | 80 | 170 | 5.0 | 8.0 | 0.00 | 0.00 | 0.00 | 88 | 1013.6 |
| 20260903103504 | 80 | 170 | 5.0 | 11.0 | 0.00 | 0.00 | 0.00 | 88 | 1013.5 |
| 20260903103004 | 80 | 174 | 5.0 | 11.0 | 0.00 | 0.00 | 0.00 | 88 | 1013.5 |
| 20260903102504 | 80 | 174 | 5.0 | 10.0 | 0.00 | 0.00 | 0.00 | 88 | 1013.5 |
| 20260903102004 | 80 | 172 | 5.0 | 10.0 | 0.00 | 0.00 | 0.00 | 88 | 1013.6 |
| 20260903101504 | 80 | 170 | 5.0 | 10.0 | 0.00 | 0.00 | 0.00 | 88 | 1013.5 |
| 20260903101025 | 80 | 165 | 5.0 | 10.0 | 0.00 | 0.00 | 0.00 | 88 | 1013.5 |
| 20260903100504 | 80 | 166 | 5.0 | 8.0 | 0.00 | 0.00 | 0.00 | 88 | 1013.6 |
| 20260903100004 | 80 | 165 | 5.0 | 8.0 | 0.00 | 0.00 | 0.00 | 88 | 1013.6 |
| 20260903095504 | 80 | 168 | 5.0 | 10.0 | 0.00 | 0.00 | 0.00 | 87 | 1013.6 |
| 20260903095004 | 80 | 170 | 4.0 | 10.0 | 0.00 | 0.00 | 0.00 | 87 | 1013.6 |
| 20260903094525 | 80 | 166 | 5.0 | 8.0 | 0.00 | 0.00 | 0.00 | 87 | 1013.6 |
| 20260903094025 | 80 | 166 | 5.0 | 11.0 | 0.00 | 0.00 | 0.00 | 87 | 1013.7 |
| 20260903093525 | 80 | 165 | 5.0 | 11.0 | 0.00 | 0.00 | 0.00 | 87 | 1013.7 |
| 20260903093004 | 80 | 166 | 5.0 | 10.0 | 0.00 | 0.00 | 0.00 | 87 | 1013.7 |
| 20260903092504 | 80 | 170 | 5.0 | 8.0 | 0.00 | 0.00 | 0.00 | 87 | 1013.7 |
| 20260903092004 | 80 | 170 | 5.0 | 8.0 | 0.00 | 0.00 | 0.00 | 87 | 1013.8 |
| 20260903091525 | 80 | 169 | 6.0 | 11.0 | 0.00 | 0.00 | 0.00 | 87 | 1013.7 |
| 20260903091025 | 80 | 167 | 5.0 | 11.0 | 0.00 | 0.00 | 0.00 | 86 | 1013.7 |
| 20260903090504 | 80 | 166 | 5.0 | 11.0 | 0.00 | 0.00 | 0.00 | 86 | 1013.8 |
| 20260903090004 | 80 | 168 | 5.0 | 11.0 | 0.00 | 0.00 | 0.00 | 86 | 1013.8 |
| 20260903085504 | 80 | 173 | 5.0 | 10.0 | 0.00 | 0.00 | 0.00 | 86 | 1013.8 |
| 20260903085003 | 80 | 172 | 5.0 | 10.0 | 0.00 | 0.00 | 0.00 | 86 | 1013.8 |
| 20260903084504 | 81 | 167 | 5.0 | 10.0 | 0.00 | 0.00 | 0.00 | 86 | 1013.7 |
| 20260903084004 | 81 | 163 | 6.0 | 10.0 | 0.00 | 0.00 | 0.00 | 86 | 1013.7 |
| 20260903083504 | 81 | 166 | 6.0 | 12.0 | 0.00 | 0.00 | 0.00 | 85 | 1013.8 |
| 20260903083004 | 81 | 166 | 6.0 | 12.0 | 0.00 | 0.00 | 0.00 | 85 | 1013.8 |
| 20260903082504 | 81 | 168 | 5.0 | 10.0 | 0.00 | 0.00 | 0.00 | 85 | 1013.7 |
| 20260903082025 | 81 | 170 | 6.0 | 10.0 | 0.00 | 0.00 | 0.00 | 85 | 1013.8 |
| 20260903081503 | 81 | 167 | 6.0 | 12.0 | 0.00 | 0.00 | 0.00 | 85 | 1013.8 |
| 20260903081004 | 81 | 167 | 7.0 | 12.0 | 0.00 | 0.00 | 0.00 | 84 | 1013.8 |
| 20260903080525 | 81 | 167 | 6.0 | 12.0 | 0.00 | 0.00 | 0.00 | 84 | 1013.8 |
| 20260903080004 | 81 | 165 | 6.0 | 12.0 | 0.00 | 0.00 | 0.00 | 84 | 1013.8 |
| 20260903075504 | 81 | 166 | 6.0 | 12.0 | 0.00 | 0.00 | 0.00 | 84 | 1013.9 |
| 20260903075004 | 81 | 163 | 6.0 | 11.0 | 0.00 | 0.00 | 0.00 | 83 | 1014.0 |
| 20260903074504 | 81 | 158 | 6.0 | 11.0 | 0.00 | 0.00 | 0.00 | 83 | 1014.0 |
| 20260903074025 | 82 | 159 | 6.0 | 11.0 | 0.00 | 0.00 | 0.00 | 83 | 1014.0 |
| 20260903073503 | 82 | 153 | 6.0 | 12.0 | 0.00 | 0.00 | 0.00 | 83 | 1014.1 |
| 20260903073004 | 82 | 155 | 6.0 | 12.0 | 0.00 | 0.00 | 0.00 | 82 | 1014.1 |
| 20260903072504 | 82 | 156 | 6.0 | 12.0 | 0.00 | 0.00 | 0.00 | 82 | 1014.0 |
| 20260903072004 | 82 | 154 | 6.0 | 12.0 | 0.00 | 0.00 | 0.00 | 82 | 1014.1 |
| 20260903071524 | 82 | 161 | 7.0 | 12.0 | 0.00 | 0.00 | 0.00 | 81 | 1014.1 |
| 20260903071004 | 82 | 163 | 6.0 | 12.0 | 0.00 | 0.00 | 0.00 | 81 | 1014.1 |
| 20260903070524 | 82 | 160 | 6.0 | 12.0 | 0.00 | 0.00 | 0.00 | 80 | 1014.2 |
| 20260903070004 | 82 | 157 | 6.0 | 12.0 | 0.00 | 0.00 | 0.00 | 80 | 1014.2 |
| 20260903065504 | 82 | 159 | 6.0 | 12.0 | 0.00 | 0.00 | 0.00 | 79 | 1014.3 |
| 20260903065004 | 82 | 160 | 6.0 | 12.0 | 0.00 | 0.00 | 0.00 | 79 | 1014.2 |
| 20260903064504 | 83 | 154 | 6.0 | 11.0 | 0.00 | 0.00 | 0.00 | 78 | 1014.2 |
| 20260903064003 | 83 | 155 | 6.0 | 12.0 | 0.00 | 0.00 | 0.00 | 78 | 1014.2 |
| 20260903063503 | 83 | 162 | 6.0 | 12.0 | 0.00 | 0.00 | 0.00 | 77 | 1014.2 |
| 20260903063004 | 83 | 161 | 5.0 | 10.0 | 0.00 | 0.00 | 0.00 | 76 | 1014.2 |
| 20260903062504 | 83 | 157 | 5.0 | 11.0 | 0.00 | 0.00 | 0.00 | 76 | 1014.2 |
| 20260903062003 | 83 | 157 | 6.0 | 13.0 | 0.00 | 0.00 | 0.00 | 76 | 1014.2 |
| 20260903061504 | 83 | 159 | 7.0 | 13.0 | 0.00 | 0.00 | 0.00 | 75 | 1014.2 |
| 20260903061003 | 83 | 155 | 7.0 | 16.0 | 0.00 | 0.00 | 0.00 | 74 | 1014.2 |
| 20260903060503 | 84 | 150 | 7.0 | 16.0 | 0.00 | 0.00 | 0.00 | 73 | 1014.2 |
| 20260903060003 | 84 | 161 | 8.0 | 16.0 | 0.00 | 0.00 | 0.00 | 73 | 1014.2 |
| 20260903055503 | 84 | 162 | 8.0 | 16.0 | 0.00 | 0.00 | 0.00 | 72 | 1014.2 |
| 20260903055004 | 84 | 151 | 7.0 | 17.0 | 0.00 | 0.00 | 0.00 | 72 | 1014.2 |
| 20260903054504 | 84 | 155 | 8.0 | 18.0 | 0.00 | 0.00 | 0.00 | 71 | 1014.2 |
| 20260903054003 | 84 | 155 | 8.0 | 18.0 | 0.00 | 0.00 | 0.00 | 71 | 1014.2 |
| 20260903053503 | 84 | 147 | 8.0 | 17.0 | 0.00 | 0.00 | 0.00 | 70 | 1014.2 |
| 20260903053003 | 84 | 147 | 7.0 | 14.0 | 0.00 | 0.00 | 0.00 | 70 | 1014.2 |
| 20260903052525 | 84 | 138 | 6.0 | 14.0 | 0.00 | 0.00 | 0.00 | 71 | 1014.1 |
| 20260903052003 | 84 | 129 | 6.0 | 14.0 | 0.00 | 0.00 | 0.00 | 71 | 1014.2 |
| 20260903051503 | 84 | 129 | 7.0 | 14.0 | 0.00 | 0.00 | 0.00 | 71 | 1014.3 |
| 20260903051003 | 84 | 127 | 7.0 | 14.0 | 0.00 | 0.00 | 0.00 | 70 | 1014.2 |
| 20260903050504 | 85 | 126 | 7.0 | 14.0 | 0.00 | 0.00 | 0.00 | 70 | 1014.1 |
| 20260903050004 | 85 | 123 | 6.0 | 13.0 | 0.00 | 0.00 | 0.00 | 69 | 1014.1 |
| 20260903045503 | 85 | 118 | 6.0 | 13.0 | 0.00 | 0.00 | 0.00 | 69 | 1014.2 |
| 20260903045025 | 85 | 120 | 5.0 | 12.0 | 0.00 | 0.00 | 0.00 | 69 | 1014.1 |
| 20260903044503 | 85 | 121 | 7.0 | 14.0 | 0.00 | 0.00 | 0.00 | 68 | 1013.9 |
| 20260903044003 | 86 | 122 | 8.0 | 16.0 | 0.00 | 0.00 | 0.00 | 68 | 1013.8 |
| 20260903043503 | 86 | 122 | 7.0 | 16.0 | 0.00 | 0.00 | 0.00 | 67 | 1013.8 |
| 20260903043025 | 86 | 119 | 7.0 | 16.0 | 0.00 | 0.00 | 0.00 | 67 | 1013.8 |
| 20260903042503 | 86 | 115 | 7.0 | 12.0 | 0.00 | 0.00 | 0.00 | 66 | 1013.8 |
| 20260903042004 | 86 | 115 | 6.0 | 12.0 | 0.00 | 0.00 | 0.00 | 65 | 1013.8 |
| 20260903041503 | 86 | 114 | 5.0 | 12.0 | 0.00 | 0.00 | 0.00 | 64 | 1013.8 |
| 20260903041004 | 86 | 108 | 5.0 | 10.0 | 0.00 | 0.00 | 0.00 | 63 | 1013.8 |
| 20260903040503 | 86 | 110 | 5.0 | 12.0 | 0.00 | 0.00 | 0.00 | 63 | 1013.7 |
| 20260903040004 | 87 | 117 | 5.0 | 12.0 | 0.00 | 0.00 | 0.00 | 63 | 1013.7 |
| 20260903035524 | 87 | 113 | 5.0 | 12.0 | 0.00 | 0.00 | 0.00 | 62 | 1013.7 |
| 20260903035003 | 87 | 106 | 5.0 | 12.0 | 0.00 | 0.00 | 0.00 | 62 | 1013.7 |
| 20260903034503 | 87 | 107 | 5.0 | 13.0 | 0.00 | 0.00 | 0.00 | 61 | 1013.7 |
| 20260903034004 | 87 | 105 | 6.0 | 13.0 | 0.00 | 0.00 | 0.00 | 61 | 1013.7 |
| 20260903033504 | 88 | 103 | 7.0 | 18.0 | 0.00 | 0.00 | 0.00 | 61 | 1013.7 |
| 20260903033024 | 88 | 106 | 7.0 | 18.0 | 0.00 | 0.00 | 0.00 | 60 | 1013.7 |
| 20260903032504 | 88 | 111 | 7.0 | 14.0 | 0.00 | 0.00 | 0.00 | 59 | 1013.6 |
| 20260903032003 | 88 | 111 | 7.0 | 18.0 | 0.00 | 0.00 | 0.00 | 59 | 1013.6 |
| 20260903031503 | 88 | 109 | 7.0 | 18.0 | 0.00 | 0.00 | 0.00 | 58 | 1013.5 |
| 20260903031003 | 88 | 107 | 6.0 | 17.0 | 0.00 | 0.00 | 0.00 | 58 | 1013.4 |
| 20260903030503 | 88 | 102 | 4.0 | 14.0 | 0.00 | 0.00 | 0.00 | 57 | 1013.2 |
| 20260903030004 | 88 | 92 | 4.0 | 11.0 | 0.00 | 0.00 | 0.00 | 57 | 1013.0 |
| 20260903025525 | 89 | 88 | 2.0 | 10.0 | 0.00 | 0.00 | 0.00 | 57 | 1012.9 |
| 20260903025003 | 89 | 92 | 2.0 | 10.0 | 0.00 | 0.00 | 0.00 | 57 | 1012.7 |
| 20260903024503 | 89 | 106 | 2.0 | 5.0 | 0.00 | 0.00 | 0.00 | 57 | 1012.7 |
| 20260903024024 | 89 | 111 | 2.0 | 6.0 | 0.00 | 0.00 | 0.00 | 56 | 1012.7 |
| 20260903023503 | 90 | 111 | 2.0 | 6.0 | 0.00 | 0.00 | 0.00 | 55 | 1012.7 |
| 20260903023003 | 90 | 106 | 2.0 | 5.0 | 0.00 | 0.00 | 0.00 | 55 | 1012.5 |
| 20260903022504 | 90 | 101 | 2.0 | 6.0 | 0.00 | 0.00 | 0.00 | 55 | 1012.5 |
| 20260903022024 | 90 | 102 | 2.0 | 6.0 | 0.00 | 0.00 | 0.00 | 55 | 1012.3 |
| 20260903021524 | 90 | 105 | 2.0 | 7.0 | 0.00 | 0.00 | 0.00 | 54 | 1012.3 |
| 20260903021024 | 91 | 105 | 2.0 | 7.0 | 0.00 | 0.00 | 0.00 | 54 | 1012.2 |
| 20260903020524 | 91 | 101 | 4.0 | 10.0 | 0.00 | 0.00 | 0.00 | 53 | 1012.2 |
| 20260903020003 | 91 | 95 | 4.0 | 10.0 | 0.00 | 0.00 | 0.00 | 53 | 1012.0 |
| 20260903015503 | 92 | 78 | 1.0 | 8.0 | 0.00 | 0.00 | 0.00 | 52 | 1012.1 |
| 20260903015003 | 92 | 58 | 1.0 | 4.0 | 0.00 | 0.00 | 0.00 | 51 | 1011.8 |
| 20260903014504 | 92 | 60 | 2.0 | 5.0 | 0.00 | 0.00 | 0.00 | 51 | 1011.7 |
| 20260903014003 | 92 | 62 | 2.0 | 5.0 | 0.00 | 0.00 | 0.00 | 51 | 1011.7 |
| 20260903013503 | 92 | 42 | 2.0 | 6.0 | 0.00 | 0.00 | 0.00 | 50 | 1011.6 |
| 20260903013003 | 93 | 37 | 2.0 | 6.0 | 0.00 | 0.00 | 0.00 | 50 | 1011.6 |
| 20260903012503 | 93 | 33 | 4.0 | 6.0 | 0.00 | 0.00 | 0.00 | 49 | 1011.6 |
| 20260903012003 | 94 | 33 | 2.0 | 10.0 | 0.00 | 0.00 | 0.00 | 48 | 1011.4 |
| 20260903011503 | 94 | 53 | 1.0 | 10.0 | 0.00 | 0.00 | 0.00 | 48 | 1011.6 |